Location: Eaton Estates
(41.3089°N, 82.0057°W)
Time: 08:24:47
(UTC+00:00)

NOAA 18 - Pass Details

Date: 02 April 2023
Orbit: 838 x 860 km, 98.9° (Epoch: 03 June)

Event Time Altitude Azimuth Distance (km) Brightness Sun altitude
Exits shadow 03:55:01 28° 321° (NW) 1,557 7.0 -38.9°
Drops below altitude 10° 03:57:45 10° 336° (NNW) 2,506 8.3 -39.1°
Sets 04:00:13 0° 341° (NNW) 3,446 9.2 -39.4°
